Location: 22
(39.7117°N, 89.5929°W)
Time: 05:32:10
(UTC-05:00)

Envisat - Visible Passes

Search period start: 24 September 2023 00:00
Search period end: 04 October 2023 00:00
Orbit: 763 x 764 km, 98.2° (Epoch: 23 September)

Date Brightness Start Highest point End Pass type
(mag) Time Alt. Az. Time Alt. Az. Time Alt. Az.
24 Sep 5.3 03:30:36 10° NE 03:33:58 18° E 03:35:12 16° ESE visible
24 Sep 3.1 05:08:19 10° N 05:13:13 51° WNW 05:15:22 31° SW visible
25 Sep 3.1 04:31:01 10° NNE 04:36:05 71° E 04:37:37 44° S visible
25 Sep 4.7 06:11:51 10° NNW 06:14:27 14° WNW 06:17:02 10° W visible
26 Sep 4.6 03:54:18 10° NE 03:58:45 30° E 03:59:52 28° ESE visible
26 Sep 3.8 05:33:17 10° N 05:37:39 30° WNW 05:40:02 21° WSW visible
27 Sep 5.6 03:18:52 10° ENE 03:21:14 13° E 03:22:07 13° ESE visible
27 Sep 2.9 04:55:37 10° N 05:00:40 67° WNW 05:02:17 42° SW visible
28 Sep 3.6 04:18:30 10° NNE 04:23:28 53° E 04:24:32 45° SE visible
28 Sep 4.4 05:58:36 10° NNW 06:02:00 18° WNW 06:04:41 13° W visible
29 Sep 4.9 03:42:03 10° NE 03:46:04 23° E 03:46:46 23° ESE visible
29 Sep 3.5 05:20:27 10° N 05:25:08 39° WNW 05:26:55 29° WSW visible
30 Sep 2.9 04:42:58 10° NNE 04:48:05 88° WNW 04:49:10 57° SSW visible
30 Sep 4.9 06:25:06 10° NW 06:26:15 11° WNW 06:27:24 10° WNW visible
01 Oct 4.1 04:06:02 10° NNE 04:10:49 40° E 04:11:25 38° ESE visible
01 Oct 4.1 05:45:35 10° NNW 05:49:32 23° WNW 05:51:34 18° W visible
02 Oct 5.3 03:29:58 10° NE 03:33:21 18° E 03:33:39 18° E visible
02 Oct 3.1 05:07:41 10° N 05:12:36 51° WNW 05:13:49 41° WSW visible
03 Oct 3.1 04:30:23 10° NNE 04:35:28 71° ESE 04:36:02 64° SE visible
03 Oct 4.7 06:11:14 10° NNW 06:13:49 14° WNW 06:16:12 11° W visible
